Weather History for Phoenix-Mesa Gateway Airport, AZ

Change the Weather History Date:

Friday, December 20, 2013

  Actual Average Record
Temperature  
Mean Temperature 52 °F -  
Max Temperature 55 °F 62 °F 80 °F (2001)
Min Temperature 50 °F 37 °F 30 °F (2000)
Degree Days  
Heating Degree Days 12    
Growing Degree Days 2 (Base 50)    
Moisture  
Dew Point 47 °F    
Average Humidity 82    
Maximum Humidity 94    
Minimum Humidity 63    
Precipitation  
Precipitation 0.42 in - - ()
Sea Level Pressure  
Sea Level Pressure 29.75 in    
Wind  
Wind Speed 8 mph (SSW)    
Max Wind Speed 92 mph    
Max Gust Speed -    
Visibility 10 miles    
Events Rain , Thunderstorm    
Averages and records for this station are not official NWS values.
T = Trace of Precipitation, MM = Missing Value Source: NWS Daily Summary

Daily Weather History Graph

Daily Weather History Graph

Search for Another Location

Airport:

Trip Planner

Search our weather history database for the weather conditions in past years. The results will help you decide how hot, cold, wet, or windy it might be!

Date:

Astronomy

Dec. 20, 2013 Rise Set
Actual Time 7:26 AM MST 5:22 PM MST
Civil Twilight 6:58 AM MST 5:50 PM MST
Nautical Twilight 6:27 AM MST 6:21 PM MST
Astronomical Twilight 5:57 AM MST 6:51 PM MST
Moon 8:38 PM MST (12/20) 9:29 AM MST (12/20)
Length of Visible Light 10h 51m
Length of Day
9h 56m
Waning Gibbous, 90% of the Moon is Illuminated
Dec 20
Waning Gibbous
Dec 25
Last Quarter
Jan 1
New
Jan 7
First Quarter
Jan 15
Full

Hourly Weather History & Observations

Time (MST) Temp. Dew Point Humidity Pressure Visibility Wind Dir Wind Speed Gust Speed Precip Events Conditions
12:15 AM 55.4 °F 42.8 °F 63% 29.72 in 10.0 mi SE 9.2 mph - N/A   Overcast
12:35 AM 55.4 °F 42.8 °F 63% 29.72 in 10.0 mi SE 8.1 mph - N/A   Overcast
12:55 AM 53.6 °F 44.6 °F 72% 29.72 in 10.0 mi SE 8.1 mph - 0.01 in Rain Heavy Rain
1:15 AM 51.8 °F 46.4 °F 82% 29.71 in 5.0 mi ESE 8.1 mph - 0.05 in Rain Rain
1:35 AM 51.8 °F 46.4 °F 82% 29.70 in 10.0 mi East 8.1 mph - 0.06 in Rain Light Rain
1:55 AM 51.8 °F 46.4 °F 82% 29.70 in 10.0 mi ESE 5.8 mph - 0.06 in   Overcast
2:15 AM 51.8 °F 46.4 °F 82% 29.70 in 5.0 mi SSE 5.8 mph - 0.02 in Rain Rain
2:35 AM 51.8 °F 48.2 °F 88% 29.69 in 10.0 mi SSE 3.5 mph - 0.03 in Rain , Thunderstorm Light Thunderstorms and Rain
2:55 AM 51.8 °F 50.0 °F 94% 29.68 in 10.0 mi ESE 5.8 mph - 0.04 in Rain , Thunderstorm Light Thunderstorms and Rain
3:15 AM 51.8 °F 46.4 °F 82% 29.69 in 10.0 mi West 3.5 mph - 0.01 in Rain , Thunderstorm Thunderstorms and Rain
3:35 AM 51.8 °F 46.4 °F 82% 29.69 in 7.0 mi WNW 5.8 mph - 0.05 in Rain , Thunderstorm Rain
3:55 AM 50.0 °F 46.4 °F 87% 29.69 in 5.0 mi NW 8.1 mph - 0.09 in Rain Heavy Rain
4:15 AM 50.0 °F 46.4 °F 87% 29.69 in 7.0 mi Calm Calm - 0.05 in Rain , Thunderstorm Thunderstorms and Rain
4:35 AM 50.0 °F 46.4 °F 87% 29.70 in 5.0 mi WSW 10.4 mph - 0.11 in Rain Rain
4:47 AM 51.8 °F 48.2 °F 88% 29.69 in 5.0 mi WSW 9.2 mph - N/A Rain Rain
4:55 AM 51.8 °F 50.0 °F 94% 29.70 in 10.0 mi SW 10.4 mph - 0.14 in Rain Light Rain
5:15 AM 51.8 °F 50.0 °F 94% 29.70 in 10.0 mi SW 5.8 mph - 0.04 in Rain Rain
5:35 AM 50.0 °F 46.4 °F 87% 29.70 in 7.0 mi Calm Calm - 0.07 in Rain Rain
5:47 AM 51.8 °F 46.4 °F 82% 29.70 in 4.0 mi SSW 3.5 mph - N/A Rain Rain
6:30 AM 51.8 °F 48.2 °F 88% 29.70 in 8.0 mi East 11.5 mph - N/A Rain Rain
6:47 AM 51.8 °F 48.2 °F 88% 29.70 in 8.0 mi East 11.5 mph - N/A Rain Light Rain
7:47 AM 51.8 °F 46.4 °F 82% 29.72 in 30.0 mi SSE 5.8 mph - N/A   Mostly Cloudy
8:47 AM 51.8 °F 48.2 °F 88% 29.73 in 30.0 mi SSE 6.9 mph - N/A   Mostly Cloudy
9:49 AM 53.6 °F 48.2 °F 82% 29.74 in 45.0 mi SE 92.1 mph - N/A   Mostly Cloudy
10:47 AM 53.6 °F 46.4 °F 77% 29.75 in 45.0 mi SSE 11.5 mph - N/A   Mostly Cloudy
11:47 AM 53.6 °F 42.8 °F 67% 29.75 in 45.0 mi SSE 8.1 mph - N/A   Overcast
12:47 PM 55.4 °F 44.6 °F 67% 29.73 in 45.0 mi South 6.9 mph - N/A   Overcast
1:54 PM 55.4 °F 42.8 °F 63% 29.72 in 45.0 mi SW 3.5 mph - N/A   Mostly Cloudy
2:50 PM 55.4 °F 42.8 °F 63% 29.72 in 45.0 mi South 3.5 mph - N/A   Mostly Cloudy
3:55 PM 55.4 °F 42.8 °F 63% 29.73 in 45.0 mi Variable 3.5 mph - N/A   Mostly Cloudy
4:47 PM 55.4 °F 44.6 °F 67% 29.74 in 20.0 mi WSW 12.7 mph - N/A   Overcast
6:47 PM 53.6 °F 46.4 °F 77% 29.77 in 20.0 mi SW 6.9 mph - N/A   Mostly Cloudy
7:55 PM 51.8 °F 48.2 °F 88% 29.78 in 10.0 mi SW 5.8 mph - N/A   Overcast
8:15 PM 51.8 °F 48.2 °F 88% 29.79 in 10.0 mi SW 4.6 mph - N/A   Overcast
8:35 PM 51.8 °F 46.4 °F 82% 29.80 in 10.0 mi SW 3.5 mph - N/A   Overcast
8:47 PM 53.6 °F 48.2 °F 82% 29.80 in 20.0 mi SW 4.6 mph - N/A   Overcast
8:55 PM 51.8 °F 46.4 °F 82% 29.80 in 10.0 mi Calm Calm - N/A   Overcast
9:15 PM 51.8 °F 48.2 °F 88% 29.82 in 10.0 mi Calm Calm - N/A   Overcast
9:35 PM 51.8 °F 48.2 °F 88% 29.82 in 10.0 mi SW 8.1 mph - N/A Rain Light Rain
9:55 PM 51.8 °F 48.2 °F 88% 29.82 in 10.0 mi SW 6.9 mph - N/A Rain Light Rain
10:15 PM 51.8 °F 46.4 °F 82% 29.82 in 10.0 mi SW 6.9 mph - N/A   Overcast
10:35 PM 50.0 °F 46.4 °F 87% 29.82 in 10.0 mi SW 8.1 mph - N/A   Drizzle
10:47 PM 51.8 °F 46.4 °F 82% 29.82 in 8.0 mi SSW 6.9 mph - N/A   Light Drizzle
10:55 PM 50.0 °F 46.4 °F 87% 29.82 in 10.0 mi SSW 8.1 mph - 0.01 in   Light Drizzle
11:15 PM 50.0 °F 46.4 °F 87% 29.82 in 10.0 mi SSW 6.9 mph - N/A   Overcast
11:35 PM 50.0 °F 46.4 °F 87% 29.82 in 10.0 mi SW 6.9 mph - N/A   Mostly Cloudy
11:47 PM 51.8 °F 46.4 °F 82% 29.83 in 20.0 mi SW 9.2 mph - N/A   Mostly Cloudy
11:55 PM 50.0 °F 46.4 °F 87% 29.83 in 10.0 mi SW 6.9 mph - N/A   Mostly Cloudy